Back to catalog

STARLINK-35707

AliveCommunicationsVLEO
NORAD 66533·PAYLOAD·🇺🇸 United States

Launched Nov 19, 2025 from Cape Canaveral Space Force Station

Loading…

Next Passes (next 24 hours)

TLE

FreshSource: CelesTrak SupGP

Epoch: Sep 15, 2026, 03:19 UTC

1 66533C 25265T   26258.13868056 -.00001189  00000+0 -43054-4 0  2581
2 66533  42.9999 288.0378 0001327 267.5767 216.6865 15.27588281    18

Track STARLINK-35707 in real time with AllMySat

Download on the App Store